Location: Bothwell
(42.3833°S, 147.0000°E)
Time: 08:48:25
(UTC+10:00)

UNISAT 6 - Pass Details

Date: 13 August 2024
Orbit: 589 x 662 km, 97.7° (Epoch: 14 September)

Event Time Altitude Azimuth Distance (km) Brightness Sun altitude
Rises 04:41:02 0° 166° (SSE) 3,045 ? -27.4°
Reaches altitude 10° 04:43:18 10° 164° (SSE) 2,124 ? -27.0°
Maximum altitude 04:47:58 73° 78° (ENE) 707 ? -26.2°
Enters shadow 04:48:47 57° 17° (NNE) 790 ? -26.0°
